User: anonymous   Login
Location: Caltech
(34.1382°N, 118.1253°W)
Time: 04:30:48
(UTC-08:00)
Language:

PAYLOAD A - Orbit

View from above orbital plane
View from above orbital plane
View from above satellite
View from above satellite

Ground track
Ground track

The orbit data is extracted from the following two-line orbital elements,

1 27840U 03031A   18053.50424323 -.00000005 +00000-0 +11597-4 0  9991
2 27840 098.2240 045.4418 0099488 084.7269 276.5262 14.38898112769218
Epoch (UTC): 22 February 2018 12:06:06
Eccentricity: 0.0099488
inclination: 98.2240°
perigee height: 691 km
apogee height: 833 km
right ascension of ascending node: 45.4418°
argument of perigee: 84.7269°
revolutions per day: 14.38898112
mean anomaly at epoch: 276.5262°
orbit number at epoch: 76921

The dashed part of the orbit path shows where the satellite is in the earth's shadow,  

DLR